Regional Weather Roundup
Issued by NWS

Home | Current Version | Previous Version | Graphics & Text | Print | Product List | Glossary On
Versions: 1 2 3 4 5 6 7 8 9 10 11 12 13 14 15 16 17 18 19 20 21 22 23 24 25 26 27 28 29 30 31 32 33 34 35 36 37 38 39 40 41 42 43 44 45 46 47 48 49 50
000
ASUS43 KLOT 011510
RWRIL

ILLINOIS REGIONAL WEATHER ROUNDUP
NATIONAL WEATHER SERVICE CHICAGO/ROMEOVILLE IL
900 AM CST SUN FEB 01 2015

NOTE: "FAIR" INDICATES FEW OR NO CLOUDS BELOW 12,000 FEET WITH NO
SIGNIFICANT WEATHER AND/OR OBSTRUCTIONS TO VISIBILITY.

* THESE STATIONS ARE NOT UNDER NWS QUALITY CONTROL. THEY ALSO MAY NOT
  REPORT WEATHER SUCH AS PRECIPITATION OR FOG.

ILZ001-002-007-009-015-016-024-011600-
NORTHWEST ILLINOIS

CITY           SKY/WX    TMP DP  RH WIND       PRES   REMARKS
MOLINE         SNOW      31  29  92 NE23G31   29.81F VSB 1/2 WCI  18
STERLING*        N/A    N/A N/A N/A MISG        N/A
SAVANNA*       LGT SNOW  27  24  88 NE18G24   29.88F VSB 3/4 WCI  14
$$

ILZ003-004-008-010-011-017-018-011600-
NORTH CENTRAL ILLINOIS

CITY           SKY/WX    TMP DP  RH WIND       PRES   REMARKS
ROCKFORD       SNOW      26  22  84 NE21G29   29.94S VSB 1/2 WCI  12
FREEPORT*      LGT SNOW  24  22  92 NE23      29.94F WCI   8
ROCHELLE*      LGT SNOW  28  27  96 NE21      29.88F WCI  15
DE KALB*       SNOW      27  26  94 NE18G25   29.90S VSB 1/2 WCI  14
PERU*          LGT SNOW  33  33 100 E9        29.84F VSB 3/4 WCI  25
$$

ILZ005-006-012>014-019>023-011600-
NORTHEAST ILLINOIS

CITY           SKY/WX    TMP DP  RH WIND       PRES   REMARKS
CHICAGO-OHARE  SNOW      29  27  92 NE17      29.92F VSB 1/2 WCI  17
CHICAGO-MIDWAY SNOW      33  31  92 E16       29.91F VSB 1/2 WCI  23
AURORA         SNOW      31  28  89 NE21      29.89F VSB 1/4 WCI  18
LANSING*       LGT SNOW  32  32 100 CALM      29.90F VSB 1
JOLIET*        SNOW      32  32  99 NE3       29.88F VSB 1/2
WAUKEGAN       SNOW      26  24  92 NE20G31   29.97F VSB 1/4 WCI  12
DUPAGE AIRPORT SNOW      30  28  92 NE17      29.90F VSB 1/4 WCI  18
KANKAKEE*      SNOW      33  32  99 E9        29.86F VSB 1/2 WCI  25
WHEELING       SNOW      29  27  92 NE17G23   29.96F VSB 1/4 WCI  17
MORRIS*        SNOW      32  32 100 E3        29.87F VSB 1/2
ROMEOVILLE*    LGT SNOW  32  32 100 E7        29.88F VSB 3/4 WCI  26
NORTHERLY ISL    N/A     31  30  96 E20         N/A  WCI  19
$$

LMZ740>746-011600-
SOUTHERN LAKE MICHIGAN

STATION/POSITION SKY/WX   TEMP    WIND        PRES    VSBY  WAVE
                          AIR SEA DIR/SP/G                  HT/PER
                          (F)     (DEG/KT/KT) (MB)    (MI)  (FT/S)
WAUKEGAN HARBOR            27      60/ 31/ 37   N/A
HARRISON CRIB              31      70/ 23/ 28   N/A
BURNHAM HARBOR             31      70/ 14/ 20   N/A
CALUMET HARBOR             31      60/ 15/ 18   N/A
MICHIGAN CITY              30      60/ 10/ 13   N/A
$$

ILZ025>027-034>036-040-047-049-050-058-095>099-011600-
WEST-CENTRAL ILLINOIS

CITY           SKY/WX    TMP DP  RH WIND       PRES   REMARKS
QUINCY         SNOW      33  32  96 E3        29.72F VSB 1/2
GALESBURG*     LGT SNOW  32  32 100 E7        29.77F WCI  26
MACOMB*        CLOUDY    32  32 100 E5        29.78F WCI  28
JACKSONVILLE*  MIX PCPN  35  33  94 CALM      29.74F
PITTSFIELD*    LGT SNOW  33  32  96 E3        29.73F
$$

ILZ028>032-037-038-041>044-048-051>054-059>061-011600-
CENTRAL ILLINOIS

CITY           SKY/WX    TMP DP  RH WIND       PRES   REMARKS
PONTIAC        SNOW      34  33  99 SE12      29.83F VSB 1/2 WCI  25
BLOOMINGTON    SNOW      33  33 100 SE12      29.79F VSB 1/2 WCI  24
DECATUR        SNOW      33  32  96 SE9       29.78F VSB 1/2 WCI  25
PEORIA         LGT SNOW  34  32  92 E9        29.78F VSB 3/4 WCI  27
LACON*         LGT SNOW  32  31  98 E7        29.81F VSB 1   WCI  26
LINCOLN*       SNOW      34  33  96 E7        29.78F VSB 1/2 WCI  28
SPRINGFIELD    LGT SNOW  34  32  92 SE7       29.76F FOG     WCI  28
TAYLORVILLE    LGT RAIN  32  32 100 SE9       29.76F WCI  24
$$

ILZ033-039-045-046-055>057-062-063-011600-
EAST-CENTRAL ILLINOIS

CITY           SKY/WX    TMP DP  RH WIND       PRES   REMARKS
CHAMPAIGN      SNOW      33  31  92 SE17      29.80F VSB 1/2 WCI  22
DANVILLE*      SNOW      32  31  97 E9        29.80F VSB 1/2 WCI  24
RANTOUL*       SNOW      34  33  96 E12       29.81F VSB 1/2 WCI  25
MATTOON        LGT SNOW  33  30  88 SE15      29.79F FOG     WCI  23
PARIS*         LGT SNOW  33  32  99 SE10      29.84F WCI  24
$$

ILZ079-100>102-011600-
SOUTHWEST ILLINOIS

CITY           SKY/WX    TMP DP  RH WIND       PRES   REMARKS
ALTON          CLOUDY    36  34  93 SE10      29.75F FOG     WCI  28
BELLEVILLE     CLOUDY    36  36 100 SE7       29.76F WCI  30
CAHOKIA*       CLOUDY    37  35  92 SE8       29.75F WCI  31
SPARTA*        DRIZZLE   37  36  99 SE5       29.78F WCI  33
$$

ILZ064>066-069>071-074>076-080>082-084>086-088>090-092>094-011600-
SOUTH-CENTRAL ILLINOIS

CITY           SKY/WX    TMP DP  RH WIND       PRES   REMARKS
CARBONDALE     LGT RAIN  41  39  93 S6        29.80F FOG
CAIRO*         RAIN      46  43  91 SW6       29.82R
EFFINGHAM*     LGT RAIN  34  31  90 E9        29.82F WCI  26
MARION         LGT RAIN  41  39  93 MISG      29.82R
MT. VERNON     CLOUDY    36  32  87 NE3       29.80F
CENTRALIA*     LGT RAIN  35  33  93 E6        29.78F WCI  30
SALEM*         LGT RAIN  37  34  91 E5        29.80F WCI  33
METROPOLIS*    RAIN      44  44 100 S12G18    29.75F
$$

ILZ067-068-072-073-078-083-087-091-011600-
SOUTHEAST ILLINOIS

CITY           SKY/WX    TMP DP  RH WIND       PRES   REMARKS
LAWRENCEVILLE  RAIN      36  33  89 E6        29.84F FOG     WCI  31
FLORA*         LGT RAIN  35  34  99 E7        29.82F WCI  29
FAIRFIELD*     LGT RAIN  36  36  98 CALM      29.81F
HARRISBURG*    LGT RAIN  41  40  96 W7        29.83R
ROBINSON*      RAIN      33  32  94 E5        29.86S WCI  29
CARMI*         RAIN      42  40  93 S10       29.79F
$$

ABBREVIATIONS USED IN REMARKS
   TC - TEMPERATURE IN CELSIUS
  WCI - WIND CHILL INDEX
   HX - HEAT INDEX
  VSB - VISIBILITY
$$




USA.gov is the U.S. government's official web portal to all federal, state and local government web resources and services.